EW5939 Weather Reports


time (UTC)temp
F
wind
direction
speed
knots
gust
knots
rain 1hr
in
rain 24hr
in
rain mn
in
humidity
%
barometer
mb
20260504014553 50 0 0.0 0.0 0.00 0.00 0.00 52 1013.2
20260504013042 51 0 0.0 1.7 0.00 0.00 0.00 52 1013.2
20260504011541 51 0 0.0 0.0 0.00 0.00 0.00 51 1013.1
20260504010039 52 0 0.0 0.0 0.00 0.00 0.00 50 1013.1
20260504004538 52 0 0.0 0.0 0.00 0.00 0.00 49 1013.0
20260504003044 52 0 0.0 2.6 0.00 0.00 0.00 48 1012.8
20260504001548 53 0 0.0 0.0 0.00 0.00 0.00 48 1012.8
20260504000044 54 0 0.0 2.6 0.00 0.00 0.00 46 1012.7
20260503234550 54 0 0.0 2.6 0.00 0.00 0.00 43 1012.7
20260503233053 55 360 0.9 7.0 0.00 0.00 0.00 42 1012.6
20260503231546 55 0 0.9 9.6 0.00 0.00 0.00 42 1012.7
20260503230045 55 0 0.0 9.6 0.00 0.00 0.00 42 1012.8
20260503224549 56 0 0.0 4.3 0.00 0.00 0.00 43 1012.8
20260503223042 56 0 0.0 7.8 0.00 0.00 0.00 41 1012.8
20260503221548 56 0 0.0 0.9 0.00 0.00 0.00 42 1012.8
20260503214545 57 0 0.0 7.8 0.00 0.00 0.00 41 1012.8
20260503213048 56 277 2.6 10.4 0.00 0.00 0.00 40 1012.8
20260503211544 57 0 0.9 10.4 0.00 0.00 0.00 40 1012.7
20260503210053 57 0 0.9 9.6 0.00 0.00 0.00 43 1012.7
20260503204601 57 0 0.0 3.5 0.00 0.00 0.00 42 1012.9
20260503203053 57 0 0.0 9.6 0.00 0.00 0.00 42 1013.0
20260503201539 56 0 0.0 9.6 0.00 0.00 0.00 42 1013.1
20260503200045 55 0 0.0 0.0 0.00 0.00 0.00 43 1013.3
20260503194603 55 0 0.0 9.6 0.00 0.00 0.00 43 1013.6
20260503193042 55 0 0.0 2.6 0.00 0.00 0.00 43 1013.9
20260503191547 55 0 0.0 0.0 0.00 0.00 0.00 46 1014.0
20260503190045 54 0 0.0 0.0 0.00 0.00 0.00 43 1014.1
20260503184538 55 0 0.0 0.0 0.00 0.00 0.00 43 1014.4
20260503183039 55 0 0.0 0.0 0.00 0.00 0.00 45 1014.6
20260503181543 54 0 0.0 0.0 0.00 0.00 0.00 44 1014.7
20260503180053 54 0 0.0 0.0 0.00 0.00 0.00 45 1015.0
20260503174539 54 0 0.0 3.5 0.00 0.00 0.00 44 1014.9
20260503173108 54 0 0.0 8.7 0.00 0.00 0.00 46 1015.1
20260503171548 53 0 0.0 9.6 0.00 0.00 0.00 44 1015.2
20260503081551 31 0 0.0 0.0 0.00 0.00 0.00 13 1015.2
20260503071542 32 0 0.0 0.0 0.00 0.00 0.00 25 1015.1
20260503054539 34 0 0.0 0.0 0.00 0.01 0.00 42 1015.3
20260503053038 34 0 0.0 0.0 0.00 0.01 0.00 44 1015.3
20260503051542 34 0 0.0 0.0 0.00 0.01 0.00 47 1015.4
20260503050042 35 0 0.0 0.0 0.00 0.01 0.00 50 1015.6
20260503044542 36 0 0.0 0.0 0.00 0.01 0.00 54 1015.6
20260503043038 36 0 0.0 0.0 0.00 0.01 0.00 57 1015.6
20260503041546 37 0 0.0 0.0 0.00 0.01 0.00 58 1015.5
20260503040044 37 0 0.0 0.0 0.00 0.01 0.00 60 1015.6
20260503034544 37 0 0.0 0.0 0.00 0.01 0.01 60 1015.7
20260503033039 37 0 0.0 0.0 0.00 0.01 0.01 60 1015.6
20260503031555 37 0 0.0 0.0 0.00 0.01 0.01 61 1015.8
20260503030039 37 0 0.0 0.0 0.00 0.01 0.01 61 1015.9
20260503024538 38 0 0.0 0.0 0.00 0.01 0.01 62 1015.9
20260503023045 38 0 0.0 0.0 0.00 0.01 0.01 63 1016.0
20260503021546 38 0 0.0 0.0 0.00 0.01 0.01 63 1015.9
20260503020051 38 0 0.0 0.0 0.00 0.01 0.01 63 1016.0